Showing default

HORUS 2, 55844

Orbit data source: Space-Track

HORUS 2, 55844 is a payload satellite owned by EgSA (EG) in SSO that was launched on Mon, 13 Mar 2023 UTC via a CHANG ZHENG 2C launch vehicle from the Jiuquan Satellite Launch Center, China (JSC). Payload-class satellites include a variety of spacecraft equipped with specific instruments for various scientific and technological missions. These include communications satellites like Starlink; space stations such as the ISS; scientific satellites like the Hubble; Earth observation satellites from companies like Planet Labs, Umbra, and HawkEye 360; GPS; miniature CubeSats for education and research; and military/defense satellites.

Loading next visibility...
Identifier
55844, 2023-032A
Orbit
SSO
Country
Flag of EGEG / EGYP
Related business
Manufacturer
DFH
Mission
Operational Defense Imaging
Bus & Motor
CAST-2000?, Unknown motor
Mass
~330 kg wet, ~330 kg dry
Launch date (UTC)
2023-03-13 (3 years ago)
Launch vehicle
CHANG ZHENG 2C
Launch site
Jiuquan Satellite Launch Center, China (JSC)
Object type
Payload
Rocket body
Debris
Shape & HBR
Box + 2 Pan, 2.0 m
Radar Cross Section
2.815 m², Large (>1 m²)

Expand to show TLE details & history
Last TLE update: 22 hours ago

TLE from 22 hours ago
0 HORUS 2
1 55844U 23032A   26172.52358841  .00004101  00000-0  17498-3 0  9998
2 55844  97.3531 247.8379 0002298 101.9753 258.1742 15.23463726182147
Epoch: 2026-06-21T12:33Z
TLE epoch observation values (Epoch: 2026-06-21T12:33:58.038Z)
Latitude
-0.00002°
Longitude
149.62344°
Altitude
498.823 km
Speed
7.615 km/s
True Right ascension
16h 31m 21s
True Declination
0° 00' 00"
Sunlit
Object was in full shadow at epoch
Visualization orbit readout
Latitude
Unknown
Longitude
Unknown
Altitude
Unknown
Speed
Unknown
Apparent Right ascension
Unknown
Apparent Declination
Unknown
Sunlit
N/A
Visualization observer readout
Local Sidereal Time
21:34:55
Azimuth
Unknown
Elevation
Unknown
Doppler factor
Unknown
Orbital elements
Apogee altitude
493.94 km
Perigee altitude
490.783 km
Semi-major axis
6,870.498 km
Eccentricity
0.00023
Inclination
97.3531°
RAAN
247.8379°
Arg. of periapsis
101.9753°
True anomaly
258.14843°
Mean anomaly
258.1742°
Eccentric anomaly
258.16131°
Mean motion
3.81119 °/min
Orbital period
94.46 mins
BSTAR
0.00017498
Loading maneuver chart data...
Computing Atmospheric mass density...
Loading historical data...
Loading historical data...
Loading historical data...
Loading historical data...
Loading historical data...
Loading historical data...
Loading historical data...

Documentation

Showing up to 5 results
|